Regional Weather Roundup
Issued by NWS

Home | Current Version | Previous Version | Text Only | Print | Product List | Glossary Off
Versions: 1 2 3 4 5 6 7 8 9 10 11 12 13 14 15 16 17 18 19 20 21 22 23 24 25 26 27 28 29 30 31 32 33 34 35 36 37 38 39 40 41 42 43 44 45 46 47 48 49 50

000
ASUS44 KMEG 011010
RWRTN
TENNESSEE HOURLY STATE WEATHER ROUNDUP
NATIONAL WEATHER SERVICE MEMPHIS TN
500 AM CDT SAT AUG 01 2015

TNZ002-004-019-021-049-052-054-088>092-011100-
WEST TENNESSEE

CITY           SKY/WX    TMP DP  RH WIND       PRES   REMARKS
MEMPHIS INTL   MOCLDY    75  66  73 N3        30.01S
NWS MEMPHIS      N/A     68 N/A N/A MISG        N/A
JACKSON        CLEAR     65  62  90 CALM      30.01S
DYERSBURG        N/A    N/A N/A N/A MISG        N/A
PARIS          CLEAR     63  63 100 CALM      30.02S
LEXINGTON      CLEAR     64  64 100 CALM      30.00S
$$

TNZ008-025-027-028-033-062-065-066-011100-
NORTH MIDDLE TENNESSEE

CITY           SKY/WX    TMP DP  RH WIND       PRES   REMARKS
NASHVILLE      CLEAR     66  64  93 CALM      30.01S
CLARKSVILLE    CLEAR     68  66  93 CALM      30.01S
SMYRNA         CLEAR     64  63  97 CALM      30.02S
CROSSVILLE     CLEAR     61  57  87 CALM      30.07S
$$

TNZ061-075-076-078-094-096-097-011100-
SOUTH MIDDLE TENNESSEE

CITY           SKY/WX    TMP DP  RH WIND       PRES   REMARKS
FAYETTEVILLE   CLEAR     63  59  88 NE5       30.01S
TULLAHOMA      CLEAR     61  55  82 CALM      30.03S
WINCHESTER     CLEAR     59  57  94 CALM      30.02S
MCMINNVILLE    CLEAR     61  61 100 CALM      30.03S
COLUMBIA       CLEAR     64  64 100 CALM      30.00F
SHELBYVILLE    CLEAR     61  61 100 CALM      30.02S
$$

TNZ017-018-042-046-047-011100-
NORTHEAST TENNESSEE

CITY           SKY/WX    TMP DP  RH WIND       PRES   REMARKS
TRI CITIES     CLEAR     58  57  97 CALM      30.05S
ELIZABETHTON   SUNNY     57  55  94 CALM      30.06S
$$

TNZ012-013-036-069-073-074-011100-
CENTRAL EAST TENNESSEE

CITY           SKY/WX    TMP DP  RH WIND       PRES   REMARKS
KNOXVILLE      CLEAR     63  61  93 NE3       30.01S
OAK RIDGE      CLEAR     64  61  90 CALM      30.03F
GATLINBURG     SUNNY     61  57  88 E3        30.02S
MORRISTOWN     SUNNY     63  61  94 CALM      30.04F
$$

TNZ083-085-099-011100-
SOUTHEAST TENNESSEE

CITY           SKY/WX    TMP DP  RH WIND       PRES   REMARKS
CHATTANOOGA    PTCLDY    66  62  87 CALM      29.99S
$$

SKY/WX REPORTED AS FAIR MEANS FEW OR NO CLOUDS BELOW
12 THOUSAND FEET.



USA.gov is the U.S. government's official web portal to all federal, state and local government web resources and services.